EN

Hourly Weather Karauli

Today, 28 November, Saturday

Time Temperature Precipitation Wind Pressure Humidity
00:00 +16°C° 0 mm 1 mps 741 mmHg 44%
01:00 +16°C° 0 mm 1 mps 740 mmHg 43%
02:00 +16°C° 0 mm 1 mps 740 mmHg 43%
03:00 +16°C° 0 mm 1 mps 740 mmHg 44%
04:00 +15°C° 0 mm 2 mps 740 mmHg 45%
05:00 +15°C° 0 mm 1 mps 740 mmHg 49%
06:00 +16°C° 0 mm 1 mps 741 mmHg 46%
07:00 +18°C° 0 mm 1 mps 741 mmHg 43%
08:00 +18°C° 0 mm 0 mps 742 mmHg 40%
09:00 +22°C° 0 mm 1 mps 741 mmHg 36%
10:00 +24°C° 0 mm 1 mps 741 mmHg 32%
11:00 +25°C° 0 mm 1 mps 741 mmHg 28%
12:00 +26°C° 0 mm 1 mps 740 mmHg 25%
13:00 +27°C° 0 mm 2 mps 740 mmHg 23%
14:00 +28°C° 0 mm 2 mps 739 mmHg 21%
15:00 +26°C° 0 mm 1 mps 738 mmHg 24%
16:00 +24°C° 0 mm 1 mps 738 mmHg 27%
17:00 +22°C° 0 mm 1 mps 738 mmHg 29%
18:00 +22°C° 0 mm 1 mps 738 mmHg 32%
19:00 +21°C° 0 mm 1 mps 739 mmHg 34%
20:00 +19°C° 0 mm 2 mps 739 mmHg 36%
21:00 +19°C° 0 mm 1 mps 739 mmHg 38%
22:00 +19°C° 0 mm 1 mps 739 mmHg 39%
23:00 +18°C° 0 mm 1 mps 739 mmHg 41%

Tomorrow, 29 November, Sunday

Time Temperature Precipitation Wind Pressure Humidity
00:00 +18°C° 0 mm 1 mps 739 mmHg 42%
01:00 +16°C° 0 mm 1 mps 738 mmHg 43%
02:00 +16°C° 0 mm 1 mps 738 mmHg 44%
03:00 +16°C° 0 mm 1 mps 738 mmHg 44%
04:00 +15°C° 0 mm 1 mps 738 mmHg 44%
05:00 +15°C° 0 mm 1 mps 738 mmHg 44%
06:00 +18°C° 0 mm 1 mps 739 mmHg 41%
07:00 +19°C° 0 mm 1 mps 740 mmHg 37%
08:00 +21°C° 0 mm 1 mps 740 mmHg 34%
09:00 +23°C° 0 mm 1 mps 740 mmHg 30%
10:00 +25°C° 0 mm 1 mps 740 mmHg 26%
11:00 +27°C° 0 mm 1 mps 740 mmHg 22%
12:00 +28°C° 0 mm 1 mps 739 mmHg 21%
13:00 +29°C° 0 mm 1 mps 739 mmHg 19%
14:00 +29°C° 0 mm 1 mps 738 mmHg 17%
15:00 +27°C° 0 mm 1 mps 738 mmHg 20%
16:00 +25°C° 0 mm 1 mps 738 mmHg 22%
17:00 +23°C° 0 mm 1 mps 737 mmHg 25%
18:00 +22°C° 0 mm 1 mps 738 mmHg 28%
19:00 +20°C° 0 mm 2 mps 738 mmHg 30%
20:00 +19°C° 0 mm 2 mps 738 mmHg 33%
21:00 +19°C° 0 mm 2 mps 738 mmHg 35%
22:00 +19°C° 0 mm 1 mps 738 mmHg 38%
23:00 +18°C° 0 mm 1 mps 738 mmHg 40%

Day after tomorrow, 30 November, Monday

Time Temperature Precipitation Wind Pressure Humidity
00:00 +18°C° 0 mm 1 mps 738 mmHg 41%
01:00 +16°C° 0 mm 1 mps 738 mmHg 42%
02:00 +16°C° 0 mm 1 mps 737 mmHg 44%
03:00 +16°C° 0 mm 1 mps 737 mmHg 45%
04:00 +14°C° 0 mm 0 mps 737 mmHg 46%
05:00 +14°C° 0 mm 0 mps 737 mmHg 47%
06:00 +15°C° 0 mm 0 mps 738 mmHg 43%
07:00 +17°C° 0 mm 0 mps 739 mmHg 38%
08:00 +19°C° 0 mm 0 mps 739 mmHg 34%
09:00 +21°C° 0 mm 0 mps 739 mmHg 30%
10:00 +23°C° 0 mm 0 mps 739 mmHg 26%
11:00 +25°C° 0 mm 0 mps 739 mmHg 22%
12:00 +26°C° 0 mm 0 mps 738 mmHg 20%
13:00 +29°C° 0 mm 1 mps 738 mmHg 18%
14:00 +30°C° 0 mm 1 mps 737 mmHg 16%
15:00 +27°C° 0 mm 1 mps 737 mmHg 18%
16:00 +25°C° 0 mm 1 mps 737 mmHg 21%
17:00 +23°C° 0 mm 1 mps 737 mmHg 23%
18:00 +22°C° 0 mm 1 mps 737 mmHg 25%
19:00 +22°C° 0 mm 1 mps 738 mmHg 26%
20:00 +21°C° 0 mm 1 mps 738 mmHg 28%
21:00 +21°C° 0 mm 1 mps 738 mmHg 29%
22:00 +20°C° 0 mm 1 mps 738 mmHg 31%
23:00 +19°C° 0 mm 1 mps 738 mmHg 33%

1 December, Tuesday

Time Temperature Precipitation Wind Pressure Humidity
00:00 +19°C° 0 mm 1 mps 738 mmHg 34%
01:00 +16°C° 0 mm 0 mps 738 mmHg 34%
02:00 +16°C° 0 mm 0 mps 738 mmHg 35%
03:00 +16°C° 0 mm 0 mps 738 mmHg 36%
04:00 +15°C° 0 mm 0 mps 738 mmHg 37%
05:00 +15°C° 0 mm 0 mps 738 mmHg 37%
06:00 +16°C° 0 mm 0 mps 738 mmHg 34%
07:00 +18°C° 0 mm 0 mps 739 mmHg 32%
08:00 +20°C° 0 mm 0 mps 739 mmHg 29%
09:00 +22°C° 0 mm 0 mps 739 mmHg 26%
10:00 +24°C° 0 mm 0 mps 739 mmHg 23%
11:00 +26°C° 0 mm 0 mps 739 mmHg 20%
12:00 +29°C° 0 mm 1 mps 739 mmHg 18%
13:00 +30°C° 0 mm 1 mps 738 mmHg 17%
14:00 +30°C° 0 mm 1 mps 737 mmHg 15%
15:00 +28°C° 0 mm 2 mps 737 mmHg 18%
16:00 +26°C° 0 mm 2 mps 737 mmHg 20%
17:00 +24°C° 0 mm 2 mps 737 mmHg 23%
18:00 +24°C° 0 mm 2 mps 737 mmHg 24%
19:00 +23°C° 0 mm 2 mps 738 mmHg 26%
20:00 +21°C° 0 mm 2 mps 738 mmHg 27%
21:00 +21°C° 0 mm 1 mps 738 mmHg 29%
22:00 +20°C° 0 mm 1 mps 738 mmHg 30%
23:00 +19°C° 0 mm 1 mps 738 mmHg 32%

2 December, Wednesday

Time Temperature Precipitation Wind Pressure Humidity
00:00 +17°C° 0 mm 0 mps 738 mmHg 33%
01:00 +16°C° 0 mm 0 mps 737 mmHg 34%
02:00 +16°C° 0 mm 0 mps 737 mmHg 34%
03:00 +16°C° 0 mm 0 mps 737 mmHg 34%
04:00 +15°C° 0 mm 0 mps 737 mmHg 35%
05:00 +16°C° 0 mm 1 mps 737 mmHg 35%
06:00 +19°C° 0 mm 1 mps 737 mmHg 33%
07:00 +20°C° 0 mm 1 mps 738 mmHg 31%
08:00 +22°C° 0 mm 1 mps 739 mmHg 29%
09:00 +24°C° 0 mm 2 mps 739 mmHg 26%
10:00 +26°C° 0 mm 2 mps 739 mmHg 22%
11:00 +29°C° 0 mm 2 mps 739 mmHg 19%
12:00 +30°C° 0 mm 3 mps 738 mmHg 18%
13:00 +30°C° 0 mm 3 mps 737 mmHg 17%
14:00 +31°C° 0 mm 3 mps 736 mmHg 15%
15:00 +29°C° 0 mm 2 mps 736 mmHg 18%
16:00 +27°C° 0 mm 2 mps 735 mmHg 20%
17:00 +25°C° 0 mm 1 mps 735 mmHg 22%
18:00 +24°C° 0 mm 1 mps 735 mmHg 24%
19:00 +23°C° 0 mm 1 mps 736 mmHg 25%
20:00 +22°C° 0 mm 1 mps 736 mmHg 26%
21:00 +21°C° 0 mm 1 mps 736 mmHg 27%
22:00 +21°C° 0 mm 1 mps 736 mmHg 27%
23:00 +20°C° 0 mm 1 mps 735 mmHg 28%

3 December, Thursday

Time Temperature Precipitation Wind Pressure Humidity
00:00 +20°C° 0 mm 1 mps 735 mmHg 29%
01:00 +17°C° 0 mm 0 mps 735 mmHg 30%
02:00 +16°C° 0 mm 0 mps 735 mmHg 31%
03:00 +16°C° 0 mm 0 mps 735 mmHg 31%
04:00 +16°C° 0 mm 0 mps 735 mmHg 31%
05:00 +15°C° 0 mm 0 mps 735 mmHg 32%
06:00 +17°C° 0 mm 0 mps 735 mmHg 30%
07:00 +19°C° 0 mm 0 mps 736 mmHg 29%
08:00 +22°C° 0 mm 1 mps 737 mmHg 27%
09:00 +24°C° 0 mm 1 mps 737 mmHg 24%
10:00 +26°C° 0 mm 1 mps 737 mmHg 20%
11:00 +28°C° 0 mm 1 mps 737 mmHg 17%
12:00 +29°C° 0 mm 2 mps 736 mmHg 15%
13:00 +30°C° 0 mm 2 mps 736 mmHg 14%
14:00 +31°C° 0 mm 2 mps 735 mmHg 12%
15:00 +29°C° 0 mm 2 mps 735 mmHg 15%
16:00 +26°C° 0 mm 1 mps 735 mmHg 17%
17:00 +24°C° 0 mm 1 mps 735 mmHg 19%
18:00 +23°C° 0 mm 1 mps 735 mmHg 20%
19:00 +22°C° 0 mm 1 mps 735 mmHg 21%
20:00 +20°C° 0 mm 0 mps 736 mmHg 21%
21:00 +19°C° 0 mm 0 mps 736 mmHg 23%
22:00 +20°C° 0 mm 1 mps 736 mmHg 24%
23:00 +20°C° 0 mm 1 mps 736 mmHg 25%
Show more